THOR ABLESTAR DEB, 263

Orbit data source: Space-Track

THOR ABLESTAR DEB, 263 is space debris in LEO originally from a launch on Thu, 29 Jun 1961 UTC launched from the Air Force Eastern Test Range (AFETR). Debris objects in space refer to the collection of defunct objects orbiting the Earth. Examples of debris include non-operational satellites, rocket bodies, and fragments generated from explosions, collisions, or faulty payload assembly.

Loading next visibility...
Identifier
263, 1961-015CK
Orbit
LEO
Country
Flag of USUS
Related business
Manufacturer
Unknown
Mission
Spacecraft
Bus & Motor
Unknown
Mass
Unknown
Launch date (UTC)
1961-06-29 (64 years ago)
Launch vehicle
Unknown
Launch site
Air Force Eastern Test Range (AFETR)
Object type
Payload
Rocket body
Debris
Shape & HBR
Unknown shape, 0.2 m
Radar Cross Section
Small (<0.1 m²)

Expand to show TLE details & history
Last TLE update: 15 hours ago

TLE from 15 hours ago
0 THOR ABLESTAR DEB
1 00263U 61015CK  25349.95386094  .00001225  00000-0  34624-3 0  9993
2 00263  66.5300 264.2499 0092562  37.0542  38.4940 14.46732063356787
Epoch: 2025-12-15T22:53Z
TLE epoch observation values (Epoch: 2025-12-15T22:53:33.585Z)
Latitude
63.09689°
Longitude
-105.65262°
Altitude
695.009 km
Speed
7.542 km/s
True Right ascension
21h 30m 19s
True Declination
62° 57' 24"
Sunlit
Object was in daylight at epoch
Visualization orbit readout
Latitude
Unknown
Longitude
Unknown
Altitude
Unknown
Speed
Unknown
Apparent Right ascension
Unknown
Apparent Declination
Unknown
Sunlit
N/A
Visualization observer readout
Local Sidereal Time
12:36:13
Azimuth
Unknown
Elevation
Unknown
Doppler factor
Unknown
Orbital elements
Apogee altitude
800.562 km
Perigee altitude
668.886 km
Semi-major axis
7,112.861 km
Eccentricity
0.00926
Inclination
66.53°
RAAN
264.2499°
Arg. of periapsis
37.0542°
True anomaly
39.16022°
Mean anomaly
38.494°
Eccentric anomaly
38.8265°
Mean motion
3.61807 °/min
Orbital period
99.5 mins
BSTAR
0.00034624
Loading maneuver chart data...
Computing Atmospheric mass density...

Documentation

Showing up to 5 results
|